Le nostre stazioni meteo in Italia

Pubblicità
Il mio iltempo24.it
Ustica, Italia (16400): Temperatura & dewpoint: 12.03.2019 20:00:00 - 18.03.2019 20:00:00 (CET)Ustica, Italia (16400): velocità del vento: 12.03.2019 20:00:00 - 18.03.2019 20:00:00 (CET)Ustica, Italia (16400): direzione del vento: 12.03.2019 20:00:00 - 18.03.2019 20:00:00 (CET)Ustica, Italia (16400): reduced air pressure: 12.03.2019 20:00:00 - 18.03.2019 20:00:00 (CET)Ustica, Italia (16400): visibility: 12.03.2019 20:00:00 - 18.03.2019 20:00:00 (CET)Ustica, Italia (16400): ore di luce: 12.03.2019 20:00:00 - 18.03.2019 20:00:00 (CET)
Data & Tempo tt [°C] td [°C] ff [km/h] ff [kn] dd ppp [hPa] vv [km] sd [min]
18.03.2019 20:00:00 - - - - - - - -
18.03.2019 19:00:00 12,2 10,6 15 8 SSO 1015,6 20 0
18.03.2019 18:00:00 13,0 9,8 15 8 SO 1015,4 20 0
18.03.2019 17:00:00 13,4 8,5 15 8 S 1015,6 20 0
18.03.2019 16:00:00 14,2 10,4 13 7 SSE 1015,7 20 0
18.03.2019 15:00:00 15,0 10,2 15 8 SSE 1015,7 20 12
18.03.2019 14:00:00 15,8 9,0 22 12 S 1016,0 20 54
18.03.2019 13:00:00 15,8 7,8 22 12 ESE 1016,8 20 60
18.03.2019 12:00:00 15,6 9,7 22 12 SE 1016,0 20 60
18.03.2019 11:00:00 15,2 10,6 22 12 SSE 1015,8 20 60
18.03.2019 10:00:00 14,4 11,4 22 12 SSE 1016,4 20 60
18.03.2019 09:00:00 14,0 12,2 22 12 S 1016,4 20 60
18.03.2019 08:00:00 13,6 11,3 21 11 S 1015,9 20 60
18.03.2019 07:00:00 13,0 9,8 18 10 SSE 1015,7 20 42
18.03.2019 06:00:00 - - - - - - - -
18.03.2019 05:00:00 - - - - - - - -
18.03.2019 04:00:00 - - - - - - - -
18.03.2019 03:00:00 - - - - - - - -
18.03.2019 02:00:00 - - - - - - - -
18.03.2019 01:00:00 - - - - - - - -
18.03.2019 00:00:00 - - - - - - - -
17.03.2019 23:00:00 - - - - - - - -
17.03.2019 22:00:00 - - - - - - - -
17.03.2019 21:00:00 - - - - - - - -
17.03.2019 20:00:00 - - - - - - - -
17.03.2019 19:00:00 12,6 4,6 15 8 SSO 1018,8 20 60
17.03.2019 18:00:00 13,2 7,0 15 8 SSO 1019,3 20 42
17.03.2019 17:00:00 14,0 8,8 15 8 SO 1018,7 20 60
17.03.2019 16:00:00 14,8 8,1 21 11 SSO 1019,1 20 60
17.03.2019 15:00:00 15,4 8,9 0 0 SSO 1020,0 20 60
17.03.2019 14:00:00 15,4 10,8 28 15 SO 1019,3 20 60
17.03.2019 13:00:00 15,2 10,2 24 13 S 1019,5 20 60
17.03.2019 12:00:00 14,8 8,5 28 15 S 1019,7 20 42
17.03.2019 11:00:00 14,8 8,5 21 11 S 1019,4 20 36
17.03.2019 10:00:00 14,2 10,0 22 12 S 1019,6 20 36
17.03.2019 09:00:00 13,8 10,0 18 10 S 1019,8 20 60
17.03.2019 08:00:00 13,0 11,1 16 9 S 1019,1 20 60
17.03.2019 07:00:00 12,2 10,3 11 6 SSO 1019,1 20 18
17.03.2019 06:00:00 - - - - - - - -
17.03.2019 05:00:00 - - - - - - - -
17.03.2019 04:00:00 - - - - - - - -
17.03.2019 03:00:00 - - - - - - - -
17.03.2019 02:00:00 - - - - - - - -
17.03.2019 01:00:00 - - - - - - - -
17.03.2019 00:00:00 - - - - - - - -
16.03.2019 23:00:00 - - - - - - - -
16.03.2019 22:00:00 - - - - - - - -
16.03.2019 21:00:00 - - - - - - - -
16.03.2019 20:00:00 - - - - - - - -
16.03.2019 19:00:00 12,8 10,9 11 6 SSO 1021,0 20 0
16.03.2019 18:00:00 13,6 12,7 16 9 SSO 1020,7 20 36
16.03.2019 17:00:00 14,0 13,7 15 8 SSO 1020,3 20 30
16.03.2019 16:00:00 14,0 14,0 15 8 S 1020,3 20 36
16.03.2019 15:00:00 15,2 15,2 18 10 S 1020,3 20 36
16.03.2019 14:00:00 15,4 15,1 18 10 S 1020,3 20 60
16.03.2019 13:00:00 15,6 15,3 22 12 S 1020,9 20 60
16.03.2019 12:00:00 15,6 13,7 22 12 S 1021,5 20 60
16.03.2019 11:00:00 15,4 12,4 22 12 S 1021,4 20 60
16.03.2019 10:00:00 14,4 12,4 22 12 S 1021,8 20 60
16.03.2019 09:00:00 13,8 12,5 22 12 OSO 1021,8 20 48
16.03.2019 08:00:00 12,4 11,4 11 6 SO 1021,7 20 18
16.03.2019 07:00:00 12,0 10,6 18 10 SSO 1021,7 20 0
16.03.2019 06:00:00 - - - - - - - -
16.03.2019 05:00:00 - - - - - - - -
16.03.2019 04:00:00 - - - - - - - -
16.03.2019 03:00:00 - - - - - - - -
16.03.2019 02:00:00 - - - - - - - -
16.03.2019 01:00:00 - - - - - - - -
16.03.2019 00:00:00 - - - - - - - -
15.03.2019 23:00:00 - - - - - - - -
15.03.2019 22:00:00 - - - - - - - -
15.03.2019 21:00:00 - - - - - - - -
15.03.2019 20:00:00 - - - - - - - -
15.03.2019 19:00:00 11,4 11,4 15 8 NO 1019,6 20 0
15.03.2019 18:00:00 13,0 13,0 22 12 NO 1018,3 20 60
15.03.2019 17:00:00 13,6 12,6 28 15 NO 1018,0 20 48
15.03.2019 16:00:00 14,0 12,7 24 13 NNO 1017,7 20 60
15.03.2019 15:00:00 14,8 13,8 22 12 NO 1017,5 20 60
15.03.2019 14:00:00 14,6 13,0 29 16 NNO 1017,1 20 60
15.03.2019 13:00:00 15,0 12,7 29 16 NO 1017,8 20 60
15.03.2019 12:00:00 14,6 13,0 34 18 NNO 1018,0 20 48
15.03.2019 11:00:00 14,2 11,5 34 18 NNO 1017,7 10 48
15.03.2019 10:00:00 13,4 11,7 29 16 NO 1017,3 10 30
15.03.2019 09:00:00 13,0 11,3 29 16 NO 1016,8 10 24
15.03.2019 08:00:00 11,4 10,0 28 15 NNO 1016,0 10 0
15.03.2019 07:00:00 11,2 9,8 34 18 NO 1015,8 10 0
15.03.2019 06:00:00 - - - - - - - -
15.03.2019 05:00:00 - - - - - - - -
15.03.2019 04:00:00 - - - - - - - -
15.03.2019 03:00:00 - - - - - - - -
15.03.2019 02:00:00 - - - - - - - -
15.03.2019 01:00:00 - - - - - - - -
15.03.2019 00:00:00 - - - - - - - -
14.03.2019 23:00:00 - - - - - - - -
14.03.2019 22:00:00 - - - - - - - -
14.03.2019 21:00:00 - - - - - - - -
14.03.2019 20:00:00 - - - - - - - -
14.03.2019 19:00:00 11,0 7,7 34 18 NNO 1016,5 20 18
14.03.2019 18:00:00 11,2 9,1 34 18 NNO 1016,1 20 36
14.03.2019 17:00:00 12,0 9,5 37 20 NNO 1015,3 20 48
14.03.2019 16:00:00 12,4 9,6 37 20 NNO 1015,0 20 48
14.03.2019 15:00:00 13,6 9,8 41 22 NNO 1014,6 20 48
14.03.2019 14:00:00 14,2 9,3 34 18 NNO 1013,8 20 60
14.03.2019 13:00:00 14,0 9,4 34 18 NNO 1013,3 20 48
14.03.2019 12:00:00 13,4 10,3 41 22 NNO 1014,3 10 48
14.03.2019 11:00:00 13,4 10,3 41 22 NO 1014,0 10 30
14.03.2019 10:00:00 10,6 9,5 37 20 NNO 1014,1 10 12
14.03.2019 09:00:00 11,4 8,9 44 24 NNO 1014,0 10 12
14.03.2019 08:00:00 11,4 9,3 37 20 NO 1013,9 10 24
14.03.2019 07:00:00 10,8 7,5 34 18 N 1014,1 20 0
14.03.2019 06:00:00 - - - - - - - -
14.03.2019 05:00:00 - - - - - - - -
14.03.2019 04:00:00 - - - - - - - -
14.03.2019 03:00:00 - - - - - - - -
14.03.2019 02:00:00 - - - - - - - -
14.03.2019 01:00:00 - - - - - - - -
14.03.2019 00:00:00 - - - - - - - -
13.03.2019 23:00:00 - - - - - - - -
13.03.2019 22:00:00 - - - - - - - -
13.03.2019 21:00:00 - - - - - - - -
13.03.2019 20:00:00 - - - - - - - -
13.03.2019 19:00:00 10,4 9,0 22 12 OSO 1017,3 20 0
13.03.2019 18:00:00 11,2 8,7 21 11 OSO 1016,9 20 48
13.03.2019 17:00:00 12,4 9,2 18 10 OSO 1017,1 20 36
13.03.2019 16:00:00 13,2 8,9 18 10 O 1017,5 20 48
13.03.2019 15:00:00 14,0 8,3 4 2 N 1018,0 20 60
13.03.2019 14:00:00 14,2 9,7 5 3 N 1018,1 20 60
13.03.2019 13:00:00 14,8 10,3 5 3 NNO 1020,6 20 60
13.03.2019 12:00:00 14,4 9,9 8 4 NNO 1020,9 20 60
13.03.2019 11:00:00 14,2 8,9 4 2 N 1020,4 20 60
13.03.2019 10:00:00 14,0 9,4 5 3 NNO 1020,8 20 60
13.03.2019 09:00:00 13,4 10,3 11 6 N 1021,0 20 60
13.03.2019 08:00:00 10,4 8,6 11 6 N 1021,1 20 60
13.03.2019 07:00:00 9,8 8,0 9 5 N 1021,2 20 0
13.03.2019 06:00:00 - - - - - - - -
13.03.2019 05:00:00 - - - - - - - -
13.03.2019 04:00:00 - - - - - - - -
13.03.2019 03:00:00 - - - - - - - -
13.03.2019 02:00:00 - - - - - - - -
13.03.2019 01:00:00 - - - - - - - -
13.03.2019 00:00:00 - - - - - - - -
12.03.2019 23:00:00 - - - - - - - -
12.03.2019 22:00:00 - - - - - - - -
12.03.2019 21:00:00 - - - - - - - -
12.03.2019 20:00:00 - - - - - - - -

tt = Temperatura
td = dewpoint
ff = velocità del vento
dd = direzione del vento
ppp = reduced air pressure
vv = visibility
sd = ore di luce

Stazioni seguenti

WeatherPro
AMSI
MeteoEarth